Forest City, IA

12:15 AM CST on December 10, 2016 (GMT -0600)
Forest City Municipal

Weather History for KFXY - March, 2014

Change the Weather History Date:

Friday, March 7, 2014

  Actual Average Record
Temperature  
Mean Temperature 28 °F -  
Max Temperature 33 °F 39 °F 66 °F (2016)
Min Temperature 24 °F 18 °F 19 °F (2013)
Degree Days  
Heating Degree Days 36    
Moisture  
Dew Point 24 °F    
Average Humidity 83    
Maximum Humidity 93    
Minimum Humidity 74    
Precipitation  
Precipitation 0.00 in - - ()
Sea Level Pressure  
Sea Level Pressure 29.90 in    
Wind  
Wind Speed 12 mph (NW)    
Max Wind Speed 22 mph    
Max Gust Speed 29 mph    
Visibility 6 miles    
Events      
Averages and records for this station are not official NWS values.
T = Trace of Precipitation, MM = Missing Value Source: NWS Daily Summary

Daily Weather History Graph

Daily Weather History Graph

Search for Another Location

Airport or City:

Trip Planner

Search our weather history database for the weather conditions in past years. The results will help you decide how hot, cold, wet, or windy it might be!

Date:

Astronomy

Mar. 07, 2014 Rise Set
Actual Time 6:40 AM CST 6:11 PM CST
Civil Twilight 6:12 AM CST 6:39 PM CST
Nautical Twilight 5:39 AM CST 7:12 PM CST
Astronomical Twilight 5:05 AM CST 7:45 PM CST
Moon 10:23 AM CST (3/7) 12:26 AM CST (3/7)
Length of Visible Light 12h 27m
Length of Day
11h 30m
Waxing Crescent, 42% of the Moon is Illuminated
Mar 7
Waxing Crescent
Mar 8
First Quarter
Mar 16
Full
Mar 23
Last Quarter
Mar 30
New

Hourly Weather History & Observations

Time (CST) Temp. Windchill Dew Point Humidity Pressure Visibility Wind Dir Wind Speed Gust Speed Precip Events Conditions
12:15 AM 30.2 °F 19.3 °F 24.8 °F 80% 29.82 in 7.0 mi South 15.0 mph - N/A   Clear
12:35 AM 30.2 °F 20.2 °F 24.8 °F 80% 29.81 in 7.0 mi South 12.7 mph - N/A   Clear
12:55 AM 30.2 °F 19.8 °F 24.8 °F 80% 29.80 in 7.0 mi South 13.8 mph - N/A   Clear
1:15 AM 30.2 °F 20.2 °F 26.6 °F 86% 29.79 in 7.0 mi SSE 12.7 mph - N/A   Clear
1:35 AM 30.2 °F 20.2 °F 26.6 °F 86% 29.80 in 7.0 mi SSE 12.7 mph - N/A   Clear
1:55 AM 28.4 °F 18.0 °F 24.8 °F 86% 29.79 in 5.0 mi SSE 12.7 mph - N/A   Clear
2:15 AM 30.2 °F 20.2 °F 24.8 °F 80% 29.79 in 5.0 mi SSE 12.7 mph - N/A   Haze
2:35 AM 28.4 °F 18.0 °F 24.8 °F 86% 29.77 in 5.0 mi SSE 12.7 mph - N/A   Clear
2:55 AM 30.2 °F 20.8 °F 26.6 °F 86% 29.77 in 5.0 mi SSE 11.5 mph - N/A   Clear
3:15 AM 30.2 °F 20.8 °F 26.6 °F 86% 29.76 in 7.0 mi SSE 11.5 mph - N/A   Clear
3:30 AM 32.0 °F 23.0 °F 26.6 °F 80% 29.76 in 7.0 mi South 11.5 mph - N/A   Clear
3:55 AM 32.0 °F 23.0 °F 26.6 °F 80% 29.76 in 7.0 mi South 11.5 mph - N/A   Scattered Clouds
4:15 AM 30.2 °F 24.3 °F 26.6 °F 86% 29.77 in 5.0 mi South 5.8 mph - N/A   Scattered Clouds
4:35 AM 30.2 °F 23.4 °F 26.6 °F 86% 29.76 in 5.0 mi SSE 6.9 mph - N/A   Scattered Clouds
4:55 AM 30.2 °F 24.3 °F 26.6 °F 86% 29.76 in 5.0 mi South 5.8 mph - N/A   Mostly Cloudy
5:15 AM 30.2 °F 23.4 °F 26.6 °F 86% 29.76 in 5.0 mi South 6.9 mph - N/A   Scattered Clouds
5:35 AM 30.2 °F 23.4 °F 26.6 °F 86% 29.76 in 5.0 mi SSE 6.9 mph - N/A   Clear
5:55 AM 28.4 °F 22.2 °F 26.6 °F 93% 29.76 in 5.0 mi South 5.8 mph - N/A   Clear
6:15 AM 28.4 °F 23.3 °F 26.6 °F 93% 29.77 in 5.0 mi South 4.6 mph - N/A   Clear
6:35 AM 28.4 °F 24.6 °F 24.8 °F 86% 29.77 in 4.0 mi South 3.5 mph - N/A   Scattered Clouds
6:55 AM 26.6 °F - 24.8 °F 93% 29.78 in 2.5 mi Calm Calm - N/A   Scattered Clouds
7:15 AM 26.6 °F - 24.8 °F 93% 29.78 in 2.0 mi Calm Calm - N/A   Overcast
7:35 AM 26.6 °F - 24.8 °F 93% 29.78 in 2.5 mi Calm Calm - N/A   Overcast
7:55 AM 28.4 °F - 26.6 °F 93% 29.78 in 2.5 mi Calm Calm - N/A   Overcast
8:10 AM 28.4 °F - 26.6 °F 93% 29.79 in 3.0 mi Calm Calm - N/A   Overcast
8:35 AM 30.2 °F - 28.4 °F 93% 29.80 in 3.0 mi Calm Calm - N/A   Mostly Cloudy
8:55 AM 32.0 °F 26.4 °F 28.4 °F 87% 29.81 in 3.0 mi West 5.8 mph - N/A   Scattered Clouds
9:15 AM 32.0 °F 25.6 °F 30.2 °F 93% 29.81 in 3.0 mi WNW 6.9 mph - N/A   Mostly Cloudy
9:35 AM 33.8 °F 25.8 °F 30.2 °F 87% 29.81 in 4.0 mi WNW 10.4 mph - N/A   Overcast
9:55 AM 33.8 °F 23.9 °F 30.2 °F 87% 29.81 in 4.0 mi NW 15.0 mph 18.4 mph N/A   Overcast
10:15 AM 33.8 °F 22.8 °F 30.2 °F 87% 29.81 in 3.0 mi NNW 18.4 mph - N/A   Overcast
10:35 AM 33.8 °F 22.8 °F 30.2 °F 87% 29.85 in 3.0 mi NNW 18.4 mph 28.8 mph N/A   Overcast
10:55 AM 33.8 °F 23.5 °F 30.2 °F 87% 29.84 in 3.0 mi North 16.1 mph - N/A   Overcast
11:15 AM 33.8 °F 23.2 °F 30.2 °F 87% 29.85 in 3.0 mi NNW 17.3 mph - N/A   Overcast
11:35 AM 33.8 °F 22.5 °F 30.2 °F 87% 29.86 in 4.0 mi NNW 19.6 mph 25.3 mph N/A   Haze
11:55 AM 33.8 °F 24.8 °F 30.2 °F 87% 29.87 in 3.0 mi NW 12.7 mph - N/A   Overcast
12:15 PM 32.0 °F 20.8 °F 28.4 °F 87% 29.87 in 2.5 mi NNW 17.3 mph - N/A   Overcast
12:35 PM 32.0 °F 21.2 °F 28.4 °F 87% 29.88 in 1.8 mi NW 16.1 mph 21.9 mph N/A   Overcast
12:55 PM 32.0 °F 20.1 °F 28.4 °F 87% 29.88 in 2.5 mi NNW 19.6 mph 26.5 mph N/A   Overcast
1:15 PM 32.0 °F 21.2 °F 26.6 °F 80% 29.89 in 5.0 mi NNW 16.1 mph 24.2 mph N/A   Haze
1:35 PM 32.0 °F 20.8 °F 26.6 °F 80% 29.88 in 5.0 mi NNW 17.3 mph 26.5 mph N/A   Haze
1:55 PM 32.0 °F 20.8 °F 26.6 °F 80% 29.89 in 5.0 mi NW 17.3 mph 26.5 mph N/A   Haze
2:15 PM 30.2 °F 17.1 °F 24.8 °F 80% 29.89 in 7.0 mi NNW 21.9 mph 27.6 mph N/A   Overcast
2:35 PM 30.2 °F 18.5 °F 23.0 °F 75% 29.91 in 7.0 mi NW 17.3 mph 26.5 mph N/A   Overcast
2:55 PM 30.2 °F 17.8 °F 23.0 °F 75% 29.93 in 7.0 mi NNW 19.6 mph 26.5 mph N/A   Overcast
3:15 PM 28.4 °F 16.2 °F 23.0 °F 80% 29.94 in 7.0 mi NW 17.3 mph 25.3 mph N/A   Overcast
3:35 PM 28.4 °F 16.6 °F 23.0 °F 80% 29.95 in 7.0 mi NW 16.1 mph 21.9 mph N/A   Overcast
3:55 PM 28.4 °F 16.2 °F 21.2 °F 74% 29.97 in 7.0 mi NNW 17.3 mph 24.2 mph N/A   Overcast
4:15 PM 26.6 °F 13.8 °F 21.2 °F 80% 29.98 in 7.0 mi NNW 17.3 mph - N/A   Overcast
4:30 PM 26.6 °F 15.2 °F 21.2 °F 80% 29.99 in 7.0 mi NNW 13.8 mph 21.9 mph N/A   Overcast
4:55 PM 26.6 °F 15.7 °F 21.2 °F 80% 29.99 in 10.0 mi NW 12.7 mph - N/A   Overcast
5:15 PM 26.6 °F 14.3 °F 21.2 °F 80% 30.01 in 10.0 mi NNW 16.1 mph - N/A   Overcast
5:35 PM 26.6 °F 14.3 °F 21.2 °F 80% 30.01 in 10.0 mi NNW 16.1 mph 21.9 mph N/A   Overcast
5:55 PM 26.6 °F 14.3 °F 21.2 °F 80% 30.01 in 10.0 mi NNW 16.1 mph - N/A   Overcast
6:15 PM 26.6 °F 13.4 °F 21.2 °F 80% 30.01 in 10.0 mi NNW 18.4 mph - N/A   Overcast
6:35 PM 26.6 °F 13.4 °F 21.2 °F 80% 30.02 in 10.0 mi NNW 18.4 mph 26.5 mph N/A   Overcast
6:55 PM 26.6 °F 12.7 °F 21.2 °F 80% 30.03 in 10.0 mi NNW 20.7 mph 26.5 mph N/A   Overcast
7:15 PM 26.6 °F 13.8 °F 21.2 °F 80% 30.03 in 10.0 mi NNW 17.3 mph - N/A   Overcast
7:35 PM 26.6 °F 13.1 °F 19.4 °F 74% 30.04 in 10.0 mi NNW 19.6 mph 27.6 mph N/A   Overcast
7:55 PM 26.6 °F 13.8 °F 19.4 °F 74% 30.05 in 10.0 mi NNW 17.3 mph 24.2 mph N/A   Overcast
8:15 PM 26.6 °F 13.4 °F 19.4 °F 74% 30.06 in 10.0 mi NNW 18.4 mph - N/A   Overcast
8:35 PM 26.6 °F 13.8 °F 19.4 °F 74% 30.07 in 10.0 mi NNW 17.3 mph 21.9 mph N/A   Overcast
8:55 PM 26.6 °F 15.7 °F 19.4 °F 74% 30.08 in 10.0 mi NNW 12.7 mph 20.7 mph N/A   Overcast
9:15 PM 26.6 °F 16.2 °F 19.4 °F 74% 30.09 in 10.0 mi NNW 11.5 mph 19.6 mph N/A   Overcast
9:35 PM 26.6 °F 15.2 °F 19.4 °F 74% 30.10 in 10.0 mi NNW 13.8 mph - N/A   Overcast
9:55 PM 26.6 °F 16.2 °F 19.4 °F 74% 30.11 in 10.0 mi NNW 11.5 mph - N/A   Overcast
10:15 PM 24.8 °F 12.4 °F 19.4 °F 80% 30.11 in 10.0 mi NNW 15.0 mph 18.4 mph N/A   Overcast
10:35 PM 24.8 °F 13.4 °F 19.4 °F 80% 30.11 in 10.0 mi NNW 12.7 mph - N/A   Overcast
10:55 PM 24.8 °F 13.4 °F 19.4 °F 80% 30.11 in 10.0 mi NNW 12.7 mph - N/A   Overcast
11:15 PM 24.8 °F 14.0 °F 19.4 °F 80% 30.11 in 10.0 mi NNW 11.5 mph - N/A   Overcast
11:35 PM 24.8 °F 14.0 °F 19.4 °F 80% 30.12 in 10.0 mi NNW 11.5 mph - N/A   Overcast
11:55 PM 24.8 °F 13.4 °F 19.4 °F 80% 30.13 in 10.0 mi NNW 12.7 mph - N/A   Overcast